Tracking 20621 objects as of 29-Mar-2020
HD Live streaming from Space Station
objects crossing your sky now

COSMOS 1581

Track COSMOS 1581 now!
COSMOS 1581 is classified as:


NORAD ID: 15095
Int'l Code: 1984-071A
Perigee: 3,401.7 km
Apogee: 37,121.7 km
Inclination: 66.0 °
Period: 720.9 minutes
Semi major axis: 26632 km
RCS: 9.1322 m2 (large)
Launch date: July 3, 1984
Source: Commonwealth of Independent States (former USSR) (CIS)
Launch site: PLESETSK MISSILE AND SPACE COMPLEX (PKMTR)
aabbcc
Your satellite tracking list
Your tracking list is empty




NASA's NSSDC Master Catalog

Two Line Element Set (TLE):
1 15095U 84071A   20088.12028063 +.00000002 +00000-0 +00000-0 0  9992
2 15095 066.0347 224.3352 6330568 044.0156 351.6342 01.99747333235099
Source of the keplerian elements: AFSPC